Meteo orario Zagorze

Oggi, 29 Luglio, Giovedi

Tempo Temperatura Precipitazioni Vento Pressione Umidità
00:00 +22°C° 0 mm 3 m/s 737 mm Hg 79%
01:00 +21°C° 0 mm 3 m/s 737 mm Hg 82%
02:00 +20°C° 0 mm 3 m/s 737 mm Hg 86%
03:00 +20°C° 0 mm 3 m/s 737 mm Hg 90%
04:00 +19°C° 0 mm 3 m/s 737 mm Hg 94%
05:00 +20°C° 0 mm 3 m/s 738 mm Hg 92%
06:00 +20°C° 0 mm 3 m/s 738 mm Hg 90%
07:00 +21°C° 0 mm 4 m/s 738 mm Hg 87%
08:00 +22°C° 0.2 mm 4 m/s 738 mm Hg 83%
09:00 +22°C° 0.2 mm 4 m/s 739 mm Hg 79%
10:00 +23°C° 0.2 mm 4 m/s 739 mm Hg 75%
11:00 +25°C° 0.3 mm 4 m/s 739 mm Hg 70%
12:00 +26°C° 0.3 mm 4 m/s 739 mm Hg 65%
13:00 +27°C° 0.3 mm 3 m/s 739 mm Hg 60%
14:00 +27°C° 0 mm 3 m/s 739 mm Hg 60%
15:00 +27°C° 0 mm 3 m/s 738 mm Hg 59%
16:00 +27°C° 0 mm 3 m/s 738 mm Hg 59%
17:00 +25°C° 0 mm 3 m/s 738 mm Hg 63%
18:00 +24°C° 0 mm 2 m/s 738 mm Hg 68%
19:00 +23°C° 0 mm 2 m/s 738 mm Hg 72%
20:00 +21°C° 0 mm 2 m/s 738 mm Hg 74%
21:00 +21°C° 0 mm 1 m/s 738 mm Hg 77%
22:00 +20°C° 0 mm 1 m/s 739 mm Hg 79%
23:00 +20°C° 0 mm 1 m/s 739 mm Hg 80%

Domani, 30 Luglio, Venerdi

Tempo Temperatura Precipitazioni Vento Pressione Umidità
00:00 +19°C° 0 mm 1 m/s 739 mm Hg 82%
01:00 +19°C° 0 mm 1 m/s 739 mm Hg 83%
02:00 +18°C° 0 mm 1 m/s 739 mm Hg 84%
03:00 +18°C° 0 mm 1 m/s 738 mm Hg 84%
04:00 +18°C° 0 mm 1 m/s 738 mm Hg 85%
05:00 +20°C° 0 mm 1 m/s 738 mm Hg 79%
06:00 +22°C° 0 mm 1 m/s 738 mm Hg 72%
07:00 +24°C° 0 mm 1 m/s 739 mm Hg 66%
08:00 +25°C° 0 mm 1 m/s 739 mm Hg 60%
09:00 +27°C° 0 mm 2 m/s 738 mm Hg 54%
10:00 +29°C° 0 mm 2 m/s 738 mm Hg 48%
11:00 +29°C° 0 mm 2 m/s 738 mm Hg 46%
12:00 +30°C° 0 mm 2 m/s 737 mm Hg 44%
13:00 +31°C° 0 mm 2 m/s 737 mm Hg 42%
14:00 +31°C° 0 mm 2 m/s 737 mm Hg 43%
15:00 +31°C° 0 mm 2 m/s 736 mm Hg 45%
16:00 +30°C° 0 mm 1 m/s 736 mm Hg 47%
17:00 +28°C° 0 mm 1 m/s 736 mm Hg 55%
18:00 +26°C° 0 mm 1 m/s 736 mm Hg 64%
19:00 +24°C° 0 mm 1 m/s 736 mm Hg 72%
20:00 +23°C° 0.1 mm 1 m/s 736 mm Hg 74%
21:00 +22°C° 0.1 mm 1 m/s 736 mm Hg 77%
22:00 +21°C° 0.1 mm 1 m/s 736 mm Hg 79%
23:00 +21°C° 0.1 mm 1 m/s 736 mm Hg 80%

Dopodomani, 31 Luglio, Sabato

Tempo Temperatura Precipitazioni Vento Pressione Umidità
00:00 +20°C° 0.1 mm 1 m/s 736 mm Hg 81%
01:00 +20°C° 0.1 mm 1 m/s 735 mm Hg 82%
02:00 +20°C° 0 mm 1 m/s 735 mm Hg 82%
03:00 +20°C° 0 mm 1 m/s 735 mm Hg 81%
04:00 +19°C° 0 mm 1 m/s 735 mm Hg 81%
05:00 +21°C° 0 mm 1 m/s 735 mm Hg 76%
06:00 +23°C° 0 mm 1 m/s 735 mm Hg 71%
07:00 +25°C° 0 mm 1 m/s 736 mm Hg 67%
08:00 +26°C° 0 mm 1 m/s 735 mm Hg 62%
09:00 +28°C° 0 mm 2 m/s 735 mm Hg 57%
10:00 +29°C° 0 mm 2 m/s 735 mm Hg 52%
11:00 +29°C° 0 mm 2 m/s 735 mm Hg 56%
12:00 +28°C° 0 mm 3 m/s 735 mm Hg 61%
13:00 +27°C° 0 mm 3 m/s 734 mm Hg 65%
14:00 +25°C° 0.8 mm 4 m/s 735 mm Hg 74%
15:00 +22°C° 0.8 mm 5 m/s 735 mm Hg 83%
16:00 +20°C° 0.8 mm 6 m/s 736 mm Hg 93%
17:00 +19°C° 0.4 mm 4 m/s 736 mm Hg 94%
18:00 +19°C° 0.4 mm 3 m/s 736 mm Hg 95%
19:00 +19°C° 0.4 mm 1 m/s 736 mm Hg 95%
20:00 +19°C° 0 mm 1 m/s 736 mm Hg 96%
21:00 +17°C° 0 mm 2 m/s 737 mm Hg 96%
22:00 +17°C° 0 mm 2 m/s 737 mm Hg 97%
23:00 +17°C° 0 mm 2 m/s 737 mm Hg 96%

1 Agosto, Domenica

Tempo Temperatura Precipitazioni Vento Pressione Umidità
00:00 +17°C° 0 mm 2 m/s 736 mm Hg 95%
01:00 +17°C° 0 mm 2 m/s 736 mm Hg 94%
02:00 +17°C° 0 mm 2 m/s 736 mm Hg 93%
03:00 +18°C° 0 mm 1 m/s 736 mm Hg 92%
04:00 +18°C° 0 mm 1 m/s 736 mm Hg 91%
05:00 +19°C° 0 mm 1 m/s 736 mm Hg 87%
06:00 +21°C° 0 mm 1 m/s 736 mm Hg 83%
07:00 +22°C° 0 mm 1 m/s 736 mm Hg 79%
08:00 +24°C° 0 mm 2 m/s 736 mm Hg 72%
09:00 +25°C° 0 mm 3 m/s 736 mm Hg 64%
10:00 +27°C° 0 mm 4 m/s 735 mm Hg 57%
11:00 +28°C° 0 mm 4 m/s 735 mm Hg 55%
12:00 +29°C° 0 mm 4 m/s 735 mm Hg 53%
13:00 +30°C° 0 mm 4 m/s 734 mm Hg 52%
14:00 +29°C° 0.3 mm 4 m/s 734 mm Hg 57%
15:00 +28°C° 0.3 mm 5 m/s 733 mm Hg 62%
16:00 +27°C° 0.3 mm 6 m/s 733 mm Hg 68%
17:00 +23°C° 0.1 mm 5 m/s 733 mm Hg 73%
18:00 +21°C° 0.1 mm 5 m/s 732 mm Hg 79%
19:00 +19°C° 0.1 mm 4 m/s 732 mm Hg 85%
20:00 +19°C° 0.4 mm 4 m/s 732 mm Hg 88%
21:00 +18°C° 0.4 mm 3 m/s 733 mm Hg 91%
22:00 +18°C° 0.4 mm 2 m/s 733 mm Hg 94%
23:00 +18°C° 0.1 mm 3 m/s 733 mm Hg 94%

2 Agosto, Lunedi

Tempo Temperatura Precipitazioni Vento Pressione Umidità
00:00 +17°C° 0.1 mm 4 m/s 733 mm Hg 94%
01:00 +17°C° 0.1 mm 4 m/s 734 mm Hg 95%
02:00 +17°C° 0 mm 4 m/s 734 mm Hg 95%
03:00 +17°C° 0 mm 4 m/s 734 mm Hg 95%
04:00 +16°C° 0 mm 3 m/s 734 mm Hg 95%
05:00 +16°C° 0.1 mm 3 m/s 734 mm Hg 95%
06:00 +15°C° 0.1 mm 4 m/s 735 mm Hg 95%
07:00 +15°C° 0.1 mm 4 m/s 735 mm Hg 95%
08:00 +15°C° 0 mm 4 m/s 736 mm Hg 93%
09:00 +15°C° 0 mm 4 m/s 736 mm Hg 92%
10:00 +15°C° 0 mm 4 m/s 737 mm Hg 90%
11:00 +18°C° 0.1 mm 4 m/s 737 mm Hg 81%
12:00 +19°C° 0.1 mm 4 m/s 737 mm Hg 72%
13:00 +21°C° 0.1 mm 3 m/s 738 mm Hg 63%
14:00 +21°C° 0 mm 3 m/s 738 mm Hg 61%
15:00 +21°C° 0 mm 3 m/s 738 mm Hg 60%
16:00 +21°C° 0 mm 3 m/s 738 mm Hg 59%
17:00 +20°C° 0 mm 2 m/s 738 mm Hg 65%
18:00 +19°C° 0 mm 2 m/s 738 mm Hg 70%
19:00 +18°C° 0 mm 2 m/s 738 mm Hg 76%
20:00 +17°C° 0 mm 2 m/s 738 mm Hg 78%
21:00 +16°C° 0 mm 2 m/s 738 mm Hg 81%
22:00 +16°C° 0 mm 2 m/s 738 mm Hg 83%
23:00 +15°C° 0 mm 2 m/s 738 mm Hg 84%

3 Agosto, Martedi

Tempo Temperatura Precipitazioni Vento Pressione Umidità
00:00 +15°C° 0 mm 2 m/s 739 mm Hg 85%
01:00 +15°C° 0 mm 2 m/s 739 mm Hg 86%
02:00 +14°C° 0 mm 2 m/s 739 mm Hg 86%
03:00 +14°C° 0 mm 2 m/s 739 mm Hg 86%
04:00 +14°C° 0 mm 2 m/s 739 mm Hg 86%
05:00 +16°C° 0 mm 2 m/s 739 mm Hg 80%
06:00 +18°C° 0 mm 2 m/s 739 mm Hg 74%
07:00 +20°C° 0 mm 1 m/s 739 mm Hg 68%
08:00 +21°C° 0 mm 2 m/s 739 mm Hg 62%
09:00 +24°C° 0 mm 2 m/s 739 mm Hg 56%
10:00 +25°C° 0 mm 2 m/s 739 mm Hg 51%
11:00 +26°C° 0 mm 2 m/s 739 mm Hg 49%
12:00 +26°C° 0 mm 2 m/s 739 mm Hg 47%
13:00 +27°C° 0 mm 2 m/s 738 mm Hg 45%
14:00 +27°C° 0 mm 2 m/s 738 mm Hg 48%
15:00 +26°C° 0 mm 2 m/s 738 mm Hg 51%
16:00 +25°C° 0 mm 1 m/s 738 mm Hg 54%
17:00 +24°C° 0.1 mm 1 m/s 738 mm Hg 61%
18:00 +23°C° 0.1 mm 1 m/s 738 mm Hg 67%
19:00 +21°C° 0.1 mm 1 m/s 738 mm Hg 73%
20:00 +20°C° 0.1 mm 1 m/s 738 mm Hg 77%
21:00 +19°C° 0.1 mm 1 m/s 738 mm Hg 80%
22:00 +18°C° 0.1 mm 1 m/s 738 mm Hg 84%
23:00 +18°C° 0 mm 1 m/s 738 mm Hg 85%
Mostrare altro

Abbiamo bisogno del tuo consenso

Meteoprog e i nostri fornitori di servizi possono memorizzare e accedere a dati personali come cookie, identificatori di dispositivi o altre tecnologie simili sul tuo dispositivo e possono elaborare tali dati per personalizzare i contenuti e gli annunci, nonché fornire funzionalità dei social media e analizzarne il traffico.

  • Archiviare e/o accedere alle informazioni sul tuo dispositivo

    Cookie, identificatori di dispositivi o altre informazioni possono essere memorizzati o resi accessibili sul tuo dispositivo per le finalità sopra indicate.

  • Annunci e contenuti personalizzati, misurazione di annunci e contenuti, approfondimenti sul pubblico e sviluppo di prodotti

    Gli annunci e i contenuti possono essere personalizzati in base a un profilo. È possibile aggiungere più dati per personalizzare meglio annunci e contenuti. È possibile misurare il rendimento degli annunci e dei contenuti. È possibile ricavare informazioni sul pubblico che ha visto gli annunci e i contenuti. Tali dati possono essere utilizzati per sviluppare o migliorare l'esperienza, i sistemi e il software dell'utente.

Cliccando su “Accetto”, acconsenti all'uso di cookie, identificatori di dispositivo, web beacon o altre tecnologie simili. Puoi modificare le impostazioni nel browser del tuo dispositivo.

Per determinati scopi, è possibile fare affidamento su interessi legali, piuttosto che sul consenso. Puoi approfondire questo argomento consultando la nostra Informativa sulla privacy e sui cookie.